KB1RMA-4 Weather Reports


time (UTC)temp
F
wind
direction
speed
knots
gust
knots
rain 1hr
in
rain 24hr
in
rain mn
in
humidity
%
barometer
mb
20260505041433 57 253 0.9 1.7 0.00 0.00 0.00 53 1010.3
20260505040931 57 275 0.0 0.0 0.00 0.00 0.00 52 1010.0
20260505040428 58 277 0.0 0.0 0.00 0.00 0.00 52 1010.1
20260505035925 58 266 0.0 0.9 0.00 0.00 0.00 51 1010.1
20260505035421 58 274 0.0 0.0 0.00 0.00 0.00 51 1010.2
20260505034918 58 240 0.0 0.0 0.00 0.00 0.00 51 1010.1
20260505034415 58 244 0.9 0.9 0.00 0.00 0.00 51 1010.0
20260505033912 58 274 0.0 0.0 0.00 0.00 0.00 50 1010.2
20260505033408 58 271 0.0 0.0 0.00 0.00 0.00 50 1010.1
20260505032907 59 269 0.0 0.0 0.00 0.00 0.00 49 1009.9
20260505032403 59 272 0.0 0.0 0.00 0.00 0.00 49 1009.9
20260505031900 59 232 2.6 4.3 0.00 0.00 0.00 49 1010.0
20260505031357 59 262 0.0 0.0 0.00 0.00 0.00 49 1010.0
20260505030854 59 276 0.0 0.0 0.00 0.00 0.00 49 1009.8
20260505030349 59 274 0.0 0.9 0.00 0.00 0.00 48 1009.9
20260505025845 59 265 0.0 0.0 0.00 0.00 0.00 48 1009.9
20260505025343 59 284 0.9 1.7 0.00 0.00 0.00 47 1010.1
20260505024842 60 276 0.0 0.0 0.00 0.00 0.00 47 1009.9
20260505024339 60 261 0.0 0.0 0.00 0.00 0.00 46 1010.1
20260505023836 60 282 0.0 0.0 0.00 0.00 0.00 47 1009.8
20260505023332 60 280 0.0 0.0 0.00 0.00 0.00 46 1010.0
20260505022830 60 264 0.0 0.9 0.00 0.00 0.00 46 1009.9
20260505022327 60 264 0.0 0.9 0.00 0.00 0.00 45 1010.0
20260505021824 60 232 1.7 2.6 0.00 0.00 0.00 45 1009.9
20260505021321 61 278 0.0 0.0 0.00 0.00 0.00 45 1009.9
20260505020816 61 278 0.0 0.0 0.00 0.00 0.00 45 1010.0
20260505020312 61 342 0.0 0.9 0.00 0.00 0.00 45 1010.1
20260505015809 61 215 1.7 2.6 0.00 0.00 0.00 44 1009.9
20260505015306 61 288 0.9 1.7 0.00 0.00 0.00 44 1009.7
20260505014804 62 224 0.9 1.7 0.00 0.00 0.00 44 1009.7
20260505014301 62 280 0.0 0.0 0.00 0.00 0.00 44 1009.8
20260505013757 62 275 0.0 0.0 0.00 0.00 0.00 44 1009.4
20260505013254 62 274 0.0 0.0 0.00 0.00 0.00 44 1009.7
20260505012753 62 280 0.0 0.0 0.00 0.00 0.00 43 1009.7
20260505012250 63 253 0.0 0.0 0.00 0.00 0.00 43 1009.5
20260505011745 63 266 0.9 0.9 0.00 0.00 0.00 42 1009.2
20260505011242 63 260 0.0 0.0 0.00 0.00 0.00 42 1009.3
20260505010738 63 257 0.9 0.9 0.00 0.00 0.00 41 1009.1
20260505010234 64 271 0.0 0.0 0.00 0.00 0.00 41 1008.9
20260505005731 64 266 0.0 0.0 0.00 0.00 0.00 41 1008.7
20260505005228 64 242 0.9 1.7 0.00 0.00 0.00 40 1008.6
20260505004725 64 210 1.7 2.6 0.00 0.00 0.00 40 1008.6
20260505004222 64 264 0.9 1.7 0.00 0.00 0.00 39 1008.4
20260505003719 65 177 1.7 4.3 0.00 0.00 0.00 39 1008.3
20260505003217 65 216 0.9 1.7 0.00 0.00 0.00 38 1008.2
20260505002713 65 268 0.0 0.9 0.00 0.00 0.00 38 1007.8
20260505002211 66 266 0.9 2.6 0.00 0.00 0.00 37 1007.9
20260505001708 66 225 0.9 1.7 0.00 0.00 0.00 37 1007.5
20260505001205 66 275 0.0 0.0 0.00 0.00 0.00 37 1007.4
20260505000702 66 261 0.0 0.0 0.00 0.00 0.00 36 1007.3
20260505000200 66 254 0.9 0.9 0.00 0.00 0.00 35 1007.3
20260504235656 66 276 0.0 0.0 0.00 0.00 0.00 35 1007.1
20260504235152 66 275 0.0 0.0 0.00 0.00 0.00 34 1007.1
20260504234650 67 280 0.0 0.0 0.00 0.00 0.00 33 1006.9
20260504234147 68 280 0.0 0.0 0.00 0.00 0.00 32 1006.9
20260504233643 68 276 0.0 0.0 0.00 0.00 0.00 31 1006.9
20260504233139 68 274 0.0 0.0 0.00 0.00 0.00 31 1006.6
20260504232637 69 278 0.0 0.0 0.00 0.00 0.00 30 1006.7
20260504232133 69 283 0.9 0.9 0.00 0.00 0.00 29 1006.7
20260504231630 70 278 0.0 0.0 0.00 0.00 0.00 29 1006.6
20260504231126 70 264 0.9 2.6 0.00 0.00 0.00 29 1006.4
20260504230622 70 284 0.0 0.0 0.00 0.00 0.00 28 1006.3
20260504230122 70 278 0.0 0.0 0.00 0.00 0.00 28 1006.3
20260504225619 71 272 0.0 0.0 0.00 0.00 0.00 28 1006.3
20260504225115 71 271 0.0 0.0 0.00 0.00 0.00 28 1006.4
20260504224612 71 275 0.0 0.0 0.00 0.00 0.00 28 1006.3
20260504224109 71 275 0.0 0.0 0.00 0.00 0.00 27 1006.3
20260504223606 71 264 0.0 0.9 0.00 0.00 0.00 27 1006.0
20260504223101 71 151 1.7 6.1 0.00 0.00 0.00 27 1006.2
20260504222559 72 319 0.0 1.7 0.00 0.00 0.00 26 1006.2
20260504222056 72 268 0.0 0.0 0.00 0.00 0.00 26 1006.2
20260504221553 72 275 0.0 0.0 0.00 0.00 0.00 27 1006.3
20260504221050 72 251 0.9 0.9 0.00 0.00 0.00 26 1006.4
20260504220546 72 241 0.0 0.0 0.00 0.00 0.00 26 1006.2
20260504220044 72 278 0.0 0.0 0.00 0.00 0.00 26 1006.1
20260504215540 73 285 0.0 0.0 0.00 0.00 0.00 26 1006.2
20260504215038 73 185 0.9 1.7 0.00 0.00 0.00 25 1006.3
20260504214533 73 268 0.0 0.9 0.00 0.00 0.00 25 1006.2
20260504214030 72 281 0.9 1.7 0.00 0.00 0.00 25 1006.0
20260504213526 72 275 0.0 0.0 0.00 0.00 0.00 26 1006.2
20260504213024 73 300 0.0 0.9 0.00 0.00 0.00 25 1006.0
20260504212519 74 264 1.7 2.6 0.00 0.00 0.00 24 1005.9
20260504212017 74 293 0.0 0.0 0.00 0.00 0.00 24 1006.1
20260504211514 73 211 2.6 4.3 0.00 0.00 0.00 24 1006.2
20260504211011 72 287 0.9 1.7 0.00 0.00 0.00 25 1006.1
20260504210508 72 260 1.7 1.7 0.00 0.00 0.00 25 1006.2
20260504210005 73 280 0.0 0.0 0.00 0.00 0.00 25 1006.3
20260504205502 73 200 0.9 1.7 0.00 0.00 0.00 24 1006.2
20260504205000 75 212 0.9 2.6 0.00 0.00 0.00 24 1006.2
20260504204458 75 278 1.7 1.7 0.00 0.00 0.00 23 1006.3
20260504203957 75 273 1.7 1.7 0.00 0.00 0.00 23 1006.4
20260504203455 73 265 0.0 0.0 0.00 0.00 0.00 23 1006.3
20260504202950 75 254 1.7 4.3 0.00 0.00 0.00 22 1006.2
20260504202447 75 284 0.9 0.9 0.00 0.00 0.00 23 1006.1
20260504201944 75 248 0.9 0.9 0.00 0.00 0.00 22 1006.1
20260504201441 75 275 0.0 0.0 0.00 0.00 0.00 22 1006.2
20260504200938 76 252 0.9 0.9 0.00 0.00 0.00 22 1006.1
20260504200435 75 275 1.7 1.7 0.00 0.00 0.00 22 1006.3
20260504195932 75 279 0.9 1.7 0.00 0.00 0.00 22 1006.2
20260504195427 76 264 1.7 4.3 0.00 0.00 0.00 21 1006.5
20260504194924 75 289 0.0 0.0 0.00 0.00 0.00 22 1006.4
20260504194420 76 284 0.0 0.0 0.00 0.00 0.00 23 1006.4
20260504193916 76 276 0.0 0.9 0.00 0.00 0.00 22 1006.3
20260504193414 75 274 0.9 1.7 0.00 0.00 0.00 21 1006.1
20260504192913 75 272 0.0 0.9 0.00 0.00 0.00 22 1006.2
20260504192409 76 277 0.9 1.7 0.00 0.00 0.00 22 1006.4
20260504191908 75 290 0.9 1.7 0.00 0.00 0.00 23 1006.4
20260504191406 75 279 1.7 1.7 0.00 0.00 0.00 23 1006.4
20260504190901 74 214 1.7 1.7 0.00 0.00 0.00 22 1006.5
20260504190357 75 249 1.7 4.3 0.00 0.00 0.00 22 1006.4
20260504185854 76 318 0.0 0.9 0.00 0.00 0.00 22 1006.4
20260504185351 75 270 3.5 6.1 0.00 0.00 0.00 22 1006.7
20260504184846 74 231 0.9 1.7 0.00 0.00 0.00 23 1006.6
20260504184343 75 283 0.9 1.7 0.00 0.00 0.00 23 1006.6
20260504183839 75 251 1.7 1.7 0.00 0.00 0.00 22 1006.7
20260504183336 74 271 0.0 0.0 0.00 0.00 0.00 23 1006.6
20260504182834 74 323 1.7 1.7 0.00 0.00 0.00 23 1006.6
20260504182331 74 222 1.7 6.1 0.00 0.00 0.00 23 1006.8
20260504181828 74 289 0.9 1.7 0.00 0.00 0.00 23 1006.6
20260504181325 74 299 0.0 0.9 0.00 0.00 0.00 24 1006.8
20260504180824 73 240 2.6 4.3 0.00 0.00 0.00 23 1006.7
20260504180322 73 213 0.9 1.7 0.00 0.00 0.00 23 1006.8
20260504175820 73 172 1.7 7.0 0.00 0.00 0.00 24 1006.9
20260504175316 72 279 0.0 0.9 0.00 0.00 0.00 24 1006.7
20260504174815 73 169 2.6 2.6 0.00 0.00 0.00 24 1007.1
20260504174312 72 261 0.9 0.9 0.00 0.00 0.00 24 1006.9
20260504173808 73 269 0.9 0.9 0.00 0.00 0.00 25 1007.2
20260504173305 72 263 0.9 1.7 0.00 0.00 0.00 25 1007.3
20260504172802 73 271 0.9 0.9 0.00 0.00 0.00 25 1007.0
20260504172259 72 204 2.6 2.6 0.00 0.00 0.00 24 1007.1
20260504171754 72 265 1.7 1.7 0.00 0.00 0.00 25 1007.0
20260504171252 72 267 2.6 7.0 0.00 0.00 0.00 25 1007.2
20260504170749 73 254 2.6 5.2 0.00 0.00 0.00 26 1007.3
20260504170246 73 291 0.9 1.7 0.00 0.00 0.00 25 1007.0
20260504160204 70 177 2.6 7.0 0.00 0.00 0.00 26 1007.6
20260504151132 67 283 0.0 0.9 0.00 0.00 0.00 31 1008.6
20260504150630 68 338 1.7 2.6 0.00 0.00 0.00 31 1008.7
20260504150126 67 256 1.7 4.3 0.00 0.00 0.00 31 1008.6
20260504141055 64 260 0.0 1.7 0.00 0.00 0.00 34 1009.0
20260504140552 64 241 2.6 5.2 0.00 0.00 0.00 34 1009.3
20260504130516 58 271 0.0 0.0 0.00 0.00 0.00 40 1009.9
20260504110403 46 273 0.0 0.0 0.00 0.00 0.00 57 1011.0
20260504100320 43 271 0.0 0.0 0.00 0.00 0.00 61 1010.7
20260504081714 45 270 0.0 0.0 0.00 0.00 0.00 53 1010.7
20260504081210 46 270 0.0 0.0 0.00 0.00 0.00 53 1010.6
20260504080707 46 270 0.0 0.0 0.00 0.00 0.00 52 1010.8
20260504080203 46 270 0.0 0.0 0.00 0.00 0.00 52 1010.8
20260504070131 43 271 0.0 0.0 0.00 0.00 0.00 57 1010.5
20260504050520 39 271 0.0 0.0 0.00 0.00 0.00 62 1010.8
20260504050017 39 271 0.0 0.0 0.00 0.00 0.00 63 1010.4
20260504045513 39 271 0.0 0.0 0.00 0.00 0.00 63 1010.5
20260504045009 39 271 0.0 0.0 0.00 0.00 0.00 62 1010.7
20260504044507 39 271 0.0 0.0 0.00 0.00 0.00 62 1010.6
20260504044003 39 271 0.0 0.0 0.00 0.00 0.00 61 1010.4
20260504043500 40 271 0.0 0.0 0.00 0.00 0.00 61 1010.7
20260504042958 40 271 0.0 0.0 0.00 0.00 0.00 61 1010.7
20260504042454 40 271 0.0 0.0 0.00 0.00 0.00 60 1010.3
20260504041951 40 271 0.0 0.0 0.00 0.00 0.00 60 1010.4